User: anonymous   Login
Location: Castle Hill Houses
(40.8186°N, 73.8497°W)
Time: 18:21:10
(UTC+00:00)
Language:

Cosmos 1680 Rocket - Orbit

View from above orbital plane
View from above orbital plane
View from above satellite
View from above satellite

Ground track
Ground track

The orbit data is extracted from the following two-line orbital elements,

1 16012U 85079B   20100.34219565 -.00000029  00000-0 -11580-5 0  9990
2 16012  74.0605  51.0696 0013837  56.2085 304.0383 14.36320202811261
Epoch (UTC): 09 April 2020 08:12:45
Eccentricity: 0.0013837
inclination: 74.0605°
perigee height: 761 km
apogee height: 780 km
right ascension of ascending node: 51.0696°
argument of perigee: 56.2085°
revolutions per day: 14.36320202
mean anomaly at epoch: 304.0383°
orbit number at epoch: 81126

The dashed part of the orbit path shows where the satellite is in the earth's shadow,  

DLR